Weather History for KDBN - November, 2013

Change the Weather History Date:

Tuesday, November 26, 2013

  Actual Average (KAHN) Record (KAHN)
Temperature  
Mean Temperature 58 °F 50 °F  
Max Temperature 69 °F 62 °F 77 °F (1910)
Min Temperature 46 °F 39 °F 14 °F (1950)
Degree Days  
Heating Degree Days 8 15  
Month to date heating degree days 283  
Since 1 July heating degree days 418  
Growing Degree Days 8 (Base 50)    
Moisture  
Dew Point 53 °F    
Average Humidity 91    
Maximum Humidity 100    
Minimum Humidity 58    
Precipitation  
Precipitation 0.00 in 0.13 in 1.66 in (1963)
Month to date precipitation 3.28  
Year to date precipitation 42.06  
Snow  
Snow 0.00 in 0.00 in 0.00 in (2001)
Month to date snowfall 0.0  
Since 1 July snowfall 0.0  
Since 1 September snowfall 0.0  
Snow Depth -    
Sea Level Pressure  
Sea Level Pressure 29.87 in    
Wind  
Wind Speed 7 mph (ESE)    
Max Wind Speed 17 mph    
Max Gust Speed 26 mph    
Visibility 8 miles    
Events Rain    
T = Trace of Precipitation, MM = Missing Value Source: NWS Daily Summary

Daily Weather History Graph

Daily Weather History Graph

Search for Another Location

Airport or City:

Trip Planner

Search our weather history database for the weather conditions in past years. The results will help you decide how hot, cold, wet, or windy it might be!

Date:

Astronomy

Nov. 26, 2013 Rise Set
Actual Time 7:11 AM EST 5:26 PM EST
Civil Twilight 6:45 AM EST 5:53 PM EST
Nautical Twilight 6:14 AM EST 6:23 PM EST
Astronomical Twilight 5:45 AM EST 6:53 PM EST
Moon 12:35 AM EST (11/26) 1:13 PM EST (11/26)
Length of Visible Light 11h 08m
Length of Day
10h 14m
Last Quarter, 41% of the Moon is Illuminated
Nov 26
Last Quarter
Dec 2
New
Dec 9
First Quarter
Dec 17
Full
Dec 25
Last Quarter

Hourly Weather History & Observations

Time (EST) Temp. Windchill Dew Point Humidity Pressure Visibility Wind Dir Wind Speed Gust Speed Precip Events Conditions
12:15 AM 50.0 °F - 35.6 °F 58% 30.21 in 10.0 mi East 9.2 mph - N/A   Overcast
12:35 AM 48.2 °F - 35.6 °F 62% 30.19 in 10.0 mi ENE 5.8 mph - N/A   Overcast
12:55 AM 48.2 °F - 35.6 °F 62% 30.18 in 10.0 mi East 6.9 mph - N/A   Overcast
1:15 AM 48.2 °F - 37.4 °F 66% 30.18 in 10.0 mi East 6.9 mph - N/A   Overcast
1:35 AM 48.2 °F - 37.4 °F 66% 30.18 in 10.0 mi East 5.8 mph - N/A   Overcast
1:55 AM 48.2 °F - 37.4 °F 66% 30.17 in 10.0 mi ENE 6.9 mph - N/A   Overcast
2:15 AM 48.2 °F - 37.4 °F 66% 30.16 in 10.0 mi East 5.8 mph - N/A   Overcast
2:35 AM 48.2 °F - 39.2 °F 71% 30.14 in 10.0 mi ENE 4.6 mph - N/A   Overcast
2:55 AM 48.2 °F - 41.0 °F 76% 30.14 in 10.0 mi ENE 6.9 mph - N/A   Overcast
3:15 AM 48.2 °F - 41.0 °F 76% 30.13 in 10.0 mi ENE 5.8 mph - N/A   Overcast
3:35 AM 48.2 °F - 41.0 °F 76% 30.13 in 10.0 mi ENE 5.8 mph - N/A   Overcast
3:55 AM 48.2 °F - 41.0 °F 76% 30.12 in 10.0 mi ENE 4.6 mph - N/A   Overcast
4:15 AM 48.2 °F - 41.0 °F 76% 30.09 in 10.0 mi East 5.8 mph - N/A   Overcast
4:35 AM 48.2 °F - 41.0 °F 76% 30.07 in 10.0 mi East 5.8 mph - N/A   Overcast
4:55 AM 48.2 °F - 42.8 °F 82% 30.07 in 10.0 mi East 4.6 mph - N/A   Overcast
5:15 AM 48.2 °F - 42.8 °F 82% 30.07 in 10.0 mi ENE 5.8 mph - N/A   Overcast
5:35 AM 50.0 °F - 42.8 °F 76% 30.07 in 10.0 mi East 6.9 mph - N/A   Overcast
5:55 AM 50.0 °F - 42.8 °F 76% 30.06 in 10.0 mi East 6.9 mph - N/A Rain Rain
6:15 AM 46.4 °F 44.3 °F 44.6 °F 93% 30.05 in 10.0 mi East 4.6 mph - N/A   Drizzle
6:35 AM 46.4 °F 43.5 °F 44.6 °F 93% 30.04 in 10.0 mi East 5.8 mph - N/A Rain Light Rain
6:55 AM 46.4 °F 45.2 °F 44.6 °F 93% 30.04 in 7.0 mi East 3.5 mph - N/A Rain Light Rain
7:15 AM 46.4 °F 44.3 °F 46.4 °F 100% 30.02 in 7.0 mi ENE 4.6 mph - N/A Rain Light Rain
7:35 AM 46.4 °F 43.5 °F 46.4 °F 100% 30.01 in 10.0 mi ENE 5.8 mph - N/A   Drizzle
7:55 AM 46.4 °F 44.3 °F 46.4 °F 100% 30.01 in 10.0 mi East 4.6 mph - N/A   Overcast
8:15 AM 48.2 °F - 46.4 °F 93% 30.01 in 10.0 mi Calm Calm - N/A   Overcast
8:35 AM 48.2 °F - 46.4 °F 93% 30.01 in 7.0 mi Calm Calm - N/A Rain Light Rain
8:55 AM 48.2 °F - 48.2 °F 100% 29.99 in 5.0 mi ENE 4.6 mph - N/A Rain Rain
9:15 AM 50.0 °F - 50.0 °F 100% 29.98 in 5.0 mi East 3.5 mph - N/A Rain Rain
9:35 AM 50.0 °F - 50.0 °F 100% 29.97 in 5.0 mi East 4.6 mph - N/A   Drizzle
9:55 AM 50.0 °F - 50.0 °F 100% 29.97 in 4.0 mi East 3.5 mph - N/A Rain Rain
10:15 AM 51.8 °F - 51.8 °F 100% 29.96 in 4.0 mi East 3.5 mph - N/A Rain Rain
10:35 AM 51.8 °F - 51.8 °F 100% 29.95 in 4.0 mi East 4.6 mph - N/A Rain Rain
10:55 AM 51.8 °F - 51.8 °F 100% 29.92 in 4.0 mi ESE 4.6 mph - N/A Rain Light Rain
11:15 AM 53.6 °F - 53.6 °F 100% 29.90 in 3.0 mi ESE 6.9 mph - N/A Rain Heavy Rain
11:35 AM 53.6 °F - 53.6 °F 100% 29.88 in 2.5 mi ESE 3.5 mph - N/A Rain Rain
11:55 AM 55.4 °F - 55.4 °F 100% 29.85 in 3.0 mi ESE 4.6 mph - N/A Rain Light Rain
12:15 PM 55.4 °F - 55.4 °F 100% 29.83 in 2.0 mi Calm Calm - N/A Rain Heavy Rain
12:35 PM 59.0 °F - 59.0 °F 100% 29.80 in 3.0 mi ESE 8.1 mph - N/A Rain Light Rain
12:55 PM 59.0 °F - 59.0 °F 100% 29.77 in 3.0 mi SE 9.2 mph - N/A Rain Heavy Rain
1:15 PM 60.8 °F - 60.8 °F 100% 29.75 in 5.0 mi SSE 9.2 mph - N/A Rain Rain
1:35 PM 62.6 °F - 62.6 °F 100% 29.74 in 10.0 mi South 10.4 mph - N/A   Drizzle
1:55 PM 64.4 °F - 64.4 °F 100% 29.72 in 10.0 mi South 12.7 mph 17.3 mph N/A   Overcast
2:15 PM 66.2 °F - 64.4 °F 94% 29.71 in 10.0 mi South 13.8 mph 21.9 mph N/A Rain Light Rain
2:35 PM 68.0 °F - 66.2 °F 94% 29.71 in 10.0 mi South 15.0 mph 24.2 mph N/A Rain Rain
2:55 PM 68.0 °F - 66.2 °F 94% 29.68 in 7.0 mi South 13.8 mph 25.3 mph N/A Rain Light Rain
3:15 PM 68.0 °F - 66.2 °F 94% 29.68 in 10.0 mi SSW 17.3 mph 26.5 mph N/A Rain Rain
3:35 PM 68.0 °F - 68.0 °F 100% 29.68 in 7.0 mi SSW 16.1 mph 21.9 mph N/A Rain Rain
3:55 PM 68.0 °F - 68.0 °F 100% 29.68 in 7.0 mi SSW 12.7 mph 19.6 mph N/A Rain Light Rain
4:15 PM 68.0 °F - 68.0 °F 100% 29.70 in 10.0 mi SSW 11.5 mph - N/A   Overcast
4:35 PM 68.0 °F - 68.0 °F 100% 29.69 in 10.0 mi SSW 11.5 mph - N/A   Overcast
4:55 PM 68.0 °F - 68.0 °F 100% 29.68 in 10.0 mi South 10.4 mph - N/A Rain Rain
5:15 PM 68.0 °F - 68.0 °F 100% 29.68 in 10.0 mi SSW 11.5 mph 20.7 mph N/A Rain Light Rain
5:35 PM 68.0 °F - 66.2 °F 94% 29.67 in 10.0 mi SSW 11.5 mph - N/A Rain Light Rain
5:55 PM 68.0 °F - 66.2 °F 94% 29.66 in 10.0 mi SSW 8.1 mph - N/A   Mostly Cloudy
6:15 PM 68.0 °F - 68.0 °F 100% 29.67 in 10.0 mi SSW 12.7 mph 16.1 mph N/A   Mostly Cloudy
6:35 PM 69.8 °F - 68.0 °F 94% 29.67 in 10.0 mi SSW 13.8 mph 18.4 mph N/A   Overcast
6:55 PM 69.8 °F - 68.0 °F 94% 29.67 in 10.0 mi SW 8.1 mph 19.6 mph N/A   Overcast
7:15 PM 69.8 °F - 68.0 °F 94% 29.67 in 10.0 mi SSW 11.5 mph - N/A   Overcast
7:35 PM 69.8 °F - 68.0 °F 94% 29.68 in 10.0 mi SSW 9.2 mph - N/A   Overcast
7:55 PM 69.8 °F - 68.0 °F 94% 29.67 in 10.0 mi SSW 10.4 mph - N/A   Overcast
8:15 PM 69.8 °F - 68.0 °F 94% 29.66 in 10.0 mi SSW 10.4 mph - N/A   Overcast
8:35 PM 69.8 °F - 68.0 °F 94% 29.66 in 10.0 mi SSW 9.2 mph - N/A   Overcast
8:55 PM 69.8 °F - 68.0 °F 94% 29.65 in 10.0 mi SSW 10.4 mph - N/A   Overcast
9:15 PM 69.8 °F - 68.0 °F 94% 29.64 in 10.0 mi WNW 4.6 mph - N/A   Overcast
9:35 PM 53.6 °F - 51.8 °F 94% 29.64 in 10.0 mi NNW 5.8 mph - N/A   Overcast
9:55 PM 50.0 °F - 48.2 °F 94% 29.67 in 5.0 mi NW 11.5 mph 17.3 mph N/A Rain Rain
10:15 PM 46.4 °F 42.9 °F 46.4 °F 100% 29.68 in 5.0 mi NW 6.9 mph - N/A Rain Rain
10:35 PM 46.4 °F 44.3 °F 46.4 °F 100% 29.68 in 5.0 mi NW 4.6 mph - N/A Rain Rain
10:55 PM 46.4 °F - 46.4 °F 100% 29.69 in 5.0 mi Calm Calm - N/A Rain Heavy Rain
11:15 PM 48.2 °F - 48.2 °F 100% 29.69 in 10.0 mi Calm Calm - N/A Rain Rain
11:35 PM 48.2 °F - 48.2 °F 100% 29.68 in 10.0 mi NNW 8.1 mph - N/A Rain Light Rain
11:55 PM 48.2 °F - 48.2 °F 100% 29.67 in 10.0 mi NNW 6.9 mph - N/A   Overcast